Location: Kershaw
(34.5481°N, 80.5823°W)
Time: 20:42:02
(UTC+00:00)

deb Explorer IX - Pass Details

Date: 11 October 2022
Orbit: 533 x 1057 km, 38.8° (Epoch: 06 December)

Event Time Altitude Azimuth Distance (km) Brightness Sun altitude
Exits shadow 09:39:26 53° 335° (NNW) 723 ? -22.4°
Maximum altitude 09:39:44 54° 352° (N) 716 ? -22.4°
Drops below altitude 10° 09:44:17 10° 70° (ENE) 2,035 ? -21.4°
Sets 09:46:51 0° 75° (ENE) 3,033 ? -20.9°
